Location: San Martino di Castrozza
(46.2667°N, 11.8000°E)
Time: 03:38:57
(UTC+00:00)

Cosmos 1844 Rocket - Pass Details

Date: 23 April 2021
Orbit: 825 x 844 km, 71.0° (Epoch: 15 May)

Event Time Altitude Azimuth Distance (km) Brightness Sun altitude
Exits shadow 00:12:37 29° 297° (WNW) 1,471 4.0 -29.6°
Maximum altitude 00:13:16 30° 309° (NW) 1,448 4.0 -29.6°
Drops below altitude 10° 00:18:09 10° 10° (N) 2,439 6.0 -29.3°
Sets 00:20:54 0° 21° (NNE) 3,379 7.1 -29.1°
